This is the latest recevied weather packets stored in our database for station/object VK4UCZ-13. If no packets are shown the sender has not sent any weather packets the latest 10 day(s).
| Time | Temp. | Humidity | Pressure | Rain* | Wind** | Luminosity | Snow |
|---|---|---|---|---|---|---|---|
| 1788539016 | 15° C | 99% | 1010.5 hPa | 0 mm | - | - | - |
| 1788538416 | 15° C | 99% | 1010.8 hPa | 0 mm | - | - | - |
| 1788537816 | 15° C | 99% | 1010.6 hPa | 0 mm | - | - | - |
| 1788534816 | 15.56° C | 99% | 1010.6 hPa | 0 mm | - | - | - |
| 1788533616 | 16.11° C | 99% | 1010.6 hPa | 0 mm | - | - | - |
| 1788532416 | 16.11° C | 99% | 1010.7 hPa | 0 mm | - | - | - |
| 1788531816 | 16.11° C | 99% | 1010.5 hPa | 0 mm | - | - | - |
| 1788531216 | 16.67° C | 99% | 1010.6 hPa | 0 mm | - | - | - |
| 1788525216 | 17.78° C | 99% | 1010.6 hPa | 0 mm | - | - | - |
| 1788523416 | 17.78° C | 98% | 1010.8 hPa | 0 mm | - | - | - |
| 1788521616 | 18.33° C | 97% | 1010.7 hPa | 0 mm | - | - | - |
| 1788521016 | 18.89° C | 98% | 1010.5 hPa | 0 mm | - | - | - |
| 1788520416 | 19.44° C | 98% | 1010.5 hPa | 0 mm | - | - | - |
| 1788518016 | 19.44° C | 94% | 1010.1 hPa | 0 mm | - | - | - |
| 1788517416 | 20° C | 94% | 1009.7 hPa | 0 mm | - | - | - |
| 1788514416 | 19.44° C | 89% | 1009.5 hPa | 0 mm | - | - | - |
| 1788513816 | 19.44° C | 88% | 1009.4 hPa | 0 mm | - | - | - |
| 1788510816 | 21.11° C | 83% | 1009.2 hPa | 0 mm | - | - | - |
| 1788510216 | 21.11° C | 82% | 1009.1 hPa | 0 mm | - | - | - |
| 1788509616 | 21.67° C | 81% | 1009 hPa | 0 mm | - | - | - |
| 1788509016 | 21.67° C | 80% | 1009.2 hPa | 0 mm | - | - | - |
| 1788508416 | 22.22° C | 80% | 1008.8 hPa | 0 mm | - | - | - |
| 1788507816 | 22.22° C | 79% | 1008.7 hPa | 0 mm | - | - | - |
| 1788507216 | 22.78° C | 77% | 1008.6 hPa | 0 mm | - | - | - |
| 1788506616 | 23.33° C | 74% | 1008.6 hPa | 0 mm | - | - | - |
* Rain latest hour (hover to see other rain measurements)
** Current wind speed in m/s (hover to see current wind gust speed)